Wetterdaten: Woche 14.12.15 - 20.12.15 (KW51)
Datum Zeit Temp. I. Temp. A. Feuchte I. Feuchte A. Luftdruck Regen Wind Richtung Sonnenschein UV Solar Taupunkt Windchill Windben
14.12.2015 00:00 23,2 C 3,2 C 46 % 96 % 1024,0 hPa 0,0 l/m 0,0 km/h (0 Bft) N 0,00 h 0,0 UV-I 0 W/m 2,6 C 3,2 C 0,0 km/h (0 Bft)
14.12.2015 01:00 23,1 C 3,2 C 47 % 96 % 1023,9 hPa 0,0 l/m 0,0 km/h (0 Bft) N 0,00 h 0,0 UV-I 0 W/m 2,6 C 3,2 C 0,0 km/h (0 Bft)
14.12.2015 02:00 23,0 C 3,3 C 47 % 96 % 1024,0 hPa 0,0 l/m 0,0 km/h (0 Bft) N 0,00 h 0,0 UV-I 0 W/m 2,7 C 3,3 C 0,0 km/h (0 Bft)
14.12.2015 03:00 22,9 C 3,4 C 47 % 96 % 1024,0 hPa 0,0 l/m 0,0 km/h (0 Bft) N 0,00 h 0,0 UV-I 0 W/m 2,8 C 3,4 C 0,0 km/h (0 Bft)
14.12.2015 04:00 22,9 C 3,4 C 47 % 96 % 1023,7 hPa 0,0 l/m 0,0 km/h (0 Bft) N 0,00 h 0,0 UV-I 0 W/m 2,8 C 3,4 C 0,0 km/h (0 Bft)
14.12.2015 05:00 22,9 C 3,1 C 47 % 96 % 1023,7 hPa 0,2 l/m 0,0 km/h (0 Bft) N 0,00 h 0,0 UV-I 0 W/m 2,6 C 3,1 C 0,0 km/h (0 Bft)
14.12.2015 06:00 22,8 C 2,9 C 48 % 96 % 1023,9 hPa 0,0 l/m 0,0 km/h (0 Bft) N 0,00 h 0,0 UV-I 0 W/m 2,3 C 2,9 C 0,0 km/h (0 Bft)
14.12.2015 07:00 22,9 C 2,9 C 47 % 96 % 1024,1 hPa 0,2 l/m 0,0 km/h (0 Bft) N 0,00 h 0,0 UV-I 0 W/m 2,3 C 2,9 C 0,0 km/h (0 Bft)
14.12.2015 08:00 23,0 C 2,8 C 45 % 97 % 1024,3 hPa 0,0 l/m 0,0 km/h (0 Bft) N 0,00 h 0,0 UV-I 10 W/m 2,3 C 2,8 C 0,0 km/h (0 Bft)
14.12.2015 09:00 23,0 C 2,9 C 46 % 97 % 1024,6 hPa 0,0 l/m 0,0 km/h (0 Bft) N 0,00 h 0,0 UV-I 20 W/m 2,5 C 2,9 C 0,0 km/h (0 Bft)
14.12.2015 10:00 23,2 C 3,2 C 45 % 97 % 1024,9 hPa 0,2 l/m 0,0 km/h (0 Bft) N 0,00 h 0,0 UV-I 37 W/m 2,8 C 3,2 C 0,0 km/h (0 Bft)
14.12.2015 11:00 23,3 C 3,4 C 46 % 97 % 1024,8 hPa 0,0 l/m 0,0 km/h (0 Bft) N 0,00 h 0,0 UV-I 42 W/m 3,0 C 3,4 C 0,0 km/h (0 Bft)
14.12.2015 12:00 23,4 C 3,9 C 47 % 97 % 1024,4 hPa 0,0 l/m 0,0 km/h (0 Bft) N 0,00 h 0,0 UV-I 47 W/m 3,5 C 3,9 C 0,0 km/h (0 Bft)
14.12.2015 13:00 23,7 C 4,3 C 47 % 97 % 1024,1 hPa 0,0 l/m 0,0 km/h (0 Bft) N 0,00 h 0,0 UV-I 39 W/m 3,9 C 4,3 C 0,0 km/h (0 Bft)
14.12.2015 14:00 23,8 C 4,6 C 48 % 96 % 1023,9 hPa 0,0 l/m 0,0 km/h (0 Bft) N 0,00 h 0,0 UV-I 21 W/m 4,0 C 4,6 C 0,0 km/h (0 Bft)
14.12.2015 15:00 23,7 C 4,7 C 48 % 96 % 1024,0 hPa 0,0 l/m 0,0 km/h (0 Bft) N 0,00 h 0,0 UV-I 9 W/m 4,1 C 4,7 C 0,0 km/h (0 Bft)
14.12.2015 16:00 23,6 C 4,4 C 47 % 96 % 1024,1 hPa 0,0 l/m 0,0 km/h (0 Bft) N 0,00 h 0,0 UV-I 0 W/m 3,8 C 4,4 C 0,0 km/h (0 Bft)
14.12.2015 17:00 23,5 C 4,3 C 47 % 96 % 1024,2 hPa 0,0 l/m 0,0 km/h (0 Bft) N 0,00 h 0,0 UV-I 0 W/m 3,7 C 4,3 C 0,0 km/h (0 Bft)
14.12.2015 18:00 23,5 C 4,1 C 47 % 96 % 1024,4 hPa 0,0 l/m 0,0 km/h (0 Bft) N 0,00 h 0,0 UV-I 0 W/m 3,5 C 4,1 C 0,0 km/h (0 Bft)
14.12.2015 19:00 24,2 C 4,1 C 46 % 96 % 1024,5 hPa 0,0 l/m 0,0 km/h (0 Bft) N 0,00 h 0,0 UV-I 0 W/m 3,5 C 4,1 C 0,0 km/h (0 Bft)
14.12.2015 20:00 23,8 C 4,2 C 46 % 96 % 1024,6 hPa 0,0 l/m 0,0 km/h (0 Bft) N 0,00 h 0,0 UV-I 0 W/m 3,6 C 4,2 C 0,0 km/h (0 Bft)
14.12.2015 21:00 23,8 C 4,3 C 47 % 96 % 1024,8 hPa 0,0 l/m 0,4 km/h (0 Bft) S-SO 0,00 h 0,0 UV-I 0 W/m 3,8 C 4,3 C 1,1 km/h (1 Bft)
14.12.2015 22:00 23,8 C 4,7 C 47 % 97 % 1024,7 hPa 0,0 l/m 0,9 km/h (0 Bft) S-SO 0,00 h 0,0 UV-I 0 W/m 4,2 C 4,7 C 2,6 km/h (1 Bft)
14.12.2015 23:00 23,5 C 4,8 C 47 % 96 % 1024,8 hPa 0,0 l/m 0,6 km/h (0 Bft) SW 0,00 h 0,0 UV-I 0 W/m 4,2 C 4,8 C 2,2 km/h (1 Bft)
15.12.2015 00:00 23,2 C 4,7 C 47 % 95 % 1024,7 hPa 0,0 l/m 0,3 km/h (0 Bft) S 0,00 h 0,0 UV-I 0 W/m 4,0 C 4,7 C 1,0 km/h (0 Bft)
15.12.2015 01:00 23,1 C 4,6 C 47 % 95 % 1024,5 hPa 0,0 l/m 2,8 km/h (1 Bft) S 0,00 h 0,0 UV-I 0 W/m 3,9 C 4,6 C 5,3 km/h (1 Bft)
15.12.2015 02:00 23,0 C 4,5 C 47 % 95 % 1024,6 hPa 0,0 l/m 4,2 km/h (1 Bft) S 0,00 h 0,0 UV-I 0 W/m 3,8 C 4,4 C 7,6 km/h (2 Bft)
15.12.2015 03:00 22,9 C 4,2 C 48 % 95 % 1024,6 hPa 0,0 l/m 4,2 km/h (1 Bft) S 0,00 h 0,0 UV-I 0 W/m 3,5 C 4,1 C 7,5 km/h (2 Bft)
15.12.2015 04:00 22,9 C 3,8 C 48 % 95 % 1024,5 hPa 0,0 l/m 3,9 km/h (1 Bft) S 0,00 h 0,0 UV-I 0 W/m 3,1 C 3,7 C 7,0 km/h (2 Bft)
15.12.2015 05:00 23,1 C 3,7 C 48 % 95 % 1024,3 hPa 0,0 l/m 3,2 km/h (1 Bft) S 0,00 h 0,0 UV-I 0 W/m 2,9 C 3,7 C 6,6 km/h (2 Bft)
15.12.2015 06:00 23,4 C 3,4 C 49 % 95 % 1024,5 hPa 0,0 l/m 3,3 km/h (1 Bft) S 0,00 h 0,0 UV-I 0 W/m 2,7 C 3,3 C 6,7 km/h (2 Bft)
15.12.2015 07:00 23,7 C 3,2 C 49 % 95 % 1024,8 hPa 0,0 l/m 3,4 km/h (1 Bft) S 0,00 h 0,0 UV-I 0 W/m 2,5 C 3,1 C 6,9 km/h (2 Bft)
15.12.2015 08:00 24,0 C 3,1 C 50 % 95 % 1025,3 hPa 0,0 l/m 1,1 km/h (0 Bft) SW 0,00 h 0,0 UV-I 6 W/m 2,4 C 3,1 C 2,9 km/h (1 Bft)
15.12.2015 09:00 24,2 C 3,1 C 49 % 96 % 1025,7 hPa 0,0 l/m 1,7 km/h (1 Bft) S 0,00 h 0,0 UV-I 18 W/m 2,6 C 3,1 C 3,6 km/h (1 Bft)
15.12.2015 10:00 24,3 C 3,2 C 48 % 96 % 1025,9 hPa 0,0 l/m 2,7 km/h (1 Bft) S 0,00 h 0,0 UV-I 29 W/m 2,6 C 3,2 C 5,0 km/h (1 Bft)
15.12.2015 11:00 24,3 C 3,4 C 47 % 95 % 1025,8 hPa 0,0 l/m 1,9 km/h (1 Bft) SW 0,00 h 0,0 UV-I 56 W/m 2,7 C 3,4 C 4,2 km/h (1 Bft)
15.12.2015 12:00 24,4 C 3,7 C 46 % 94 % 1025,7 hPa 0,0 l/m 1,0 km/h (0 Bft) S 0,00 h 0,0 UV-I 33 W/m 2,9 C 3,7 C 2,8 km/h (1 Bft)
15.12.2015 13:00 24,4 C 3,9 C 45 % 94 % 1025,4 hPa 0,0 l/m 1,0 km/h (0 Bft) S 0,00 h 0,0 UV-I 40 W/m 3,0 C 3,9 C 2,7 km/h (1 Bft)
15.12.2015 14:00 24,4 C 4,2 C 46 % 94 % 1025,4 hPa 0,0 l/m 0,7 km/h (0 Bft) S 0,00 h 0,0 UV-I 36 W/m 3,3 C 4,2 C 1,8 km/h (1 Bft)
15.12.2015 15:00 24,2 C 4,6 C 44 % 94 % 1025,7 hPa 0,0 l/m 0,9 km/h (0 Bft) S 0,00 h 0,0 UV-I 23 W/m 3,7 C 4,6 C 1,9 km/h (1 Bft)
15.12.2015 16:00 24,3 C 4,6 C 43 % 94 % 1026,1 hPa 0,0 l/m 0,1 km/h (0 Bft) S 0,00 h 0,0 UV-I 0 W/m 3,7 C 4,6 C 0,3 km/h (0 Bft)
15.12.2015 17:00 24,3 C 4,6 C 44 % 95 % 1026,6 hPa 0,0 l/m 0,0 km/h (0 Bft) N 0,00 h 0,0 UV-I 0 W/m 3,8 C 4,6 C 0,1 km/h (0 Bft)
15.12.2015 18:00 24,2 C 4,7 C 44 % 95 % 1027,1 hPa 0,0 l/m 0,0 km/h (0 Bft) N 0,00 h 0,0 UV-I 0 W/m 3,9 C 4,7 C 0,0 km/h (0 Bft)
15.12.2015 19:00 24,5 C 4,7 C 44 % 95 % 1027,6 hPa 0,0 l/m 0,0 km/h (0 Bft) N 0,00 h 0,0 UV-I 0 W/m 3,9 C 4,7 C 0,1 km/h (0 Bft)
15.12.2015 20:00 24,1 C 4,6 C 43 % 95 % 1027,7 hPa 0,0 l/m 0,4 km/h (0 Bft) S 0,00 h 0,0 UV-I 0 W/m 3,8 C 4,6 C 0,7 km/h (0 Bft)
15.12.2015 21:00 24,2 C 4,3 C 43 % 95 % 1027,8 hPa 0,0 l/m 0,1 km/h (0 Bft) W 0,00 h 0,0 UV-I 0 W/m 3,5 C 4,3 C 0,3 km/h (0 Bft)
15.12.2015 22:00 23,9 C 4,0 C 42 % 95 % 1028,0 hPa 0,0 l/m 0,0 km/h (0 Bft) N 0,00 h 0,0 UV-I 0 W/m 3,3 C 4,0 C 0,0 km/h (0 Bft)
15.12.2015 23:00 23,7 C 3,6 C 43 % 95 % 1028,3 hPa 0,0 l/m 0,0 km/h (0 Bft) N 0,00 h 0,0 UV-I 0 W/m 2,8 C 3,6 C 0,0 km/h (0 Bft)
16.12.2015 00:00 23,5 C 2,6 C 45 % 94 % 1028,5 hPa 0,0 l/m 0,1 km/h (0 Bft) NW 0,00 h 0,0 UV-I 0 W/m 1,8 C 2,6 C 0,2 km/h (0 Bft)
16.12.2015 01:00 23,4 C 1,6 C 45 % 94 % 1028,6 hPa 0,0 l/m 0,0 km/h (0 Bft) N 0,00 h 0,0 UV-I 0 W/m 0,8 C 1,6 C 0,0 km/h (0 Bft)
16.12.2015 02:00 23,3 C 1,0 C 45 % 95 % 1028,9 hPa 0,0 l/m 0,0 km/h (0 Bft) N 0,00 h 0,0 UV-I 0 W/m 0,3 C 1,0 C 0,0 km/h (0 Bft)
16.12.2015 03:00 23,2 C 1,4 C 45 % 97 % 1028,9 hPa 0,0 l/m 0,0 km/h (0 Bft) N 0,00 h 0,0 UV-I 0 W/m 0,9 C 1,4 C 0,1 km/h (0 Bft)
16.12.2015 04:00 23,2 C 1,3 C 46 % 97 % 1028,9 hPa 0,0 l/m 0,0 km/h (0 Bft) N 0,00 h 0,0 UV-I 0 W/m 0,9 C 1,3 C 0,0 km/h (0 Bft)
16.12.2015 05:00 23,4 C 1,2 C 47 % 97 % 1029,0 hPa 0,0 l/m 0,0 km/h (0 Bft) N 0,00 h 0,0 UV-I 0 W/m 0,8 C 1,2 C 0,0 km/h (0 Bft)
16.12.2015 06:00 23,7 C 1,0 C 48 % 97 % 1029,1 hPa 0,0 l/m 0,0 km/h (0 Bft) N 0,00 h 0,0 UV-I 0 W/m 0,5 C 1,0 C 0,0 km/h (0 Bft)
16.12.2015 07:00 23,9 C 1,5 C 48 % 97 % 1029,4 hPa 0,0 l/m 0,0 km/h (0 Bft) N 0,00 h 0,0 UV-I 0 W/m 1,1 C 1,5 C 0,1 km/h (0 Bft)
16.12.2015 08:00 23,9 C 2,0 C 47 % 98 % 1029,6 hPa 0,0 l/m 0,1 km/h (0 Bft) NW 0,00 h 0,0 UV-I 14 W/m 1,7 C 2,0 C 0,2 km/h (0 Bft)
16.12.2015 09:00 23,8 C 2,7 C 46 % 98 % 1029,8 hPa 0,0 l/m 0,0 km/h (0 Bft) N 0,00 h 0,0 UV-I 31 W/m 2,5 C 2,7 C 0,0 km/h (0 Bft)
16.12.2015 10:00 23,8 C 3,7 C 45 % 98 % 1029,8 hPa 0,0 l/m 0,0 km/h (0 Bft) N 0,00 h 0,5 UV-I 65 W/m 3,4 C 3,7 C 0,0 km/h (0 Bft)
16.12.2015 11:00 23,8 C 4,9 C 44 % 98 % 1029,5 hPa 0,0 l/m 0,0 km/h (0 Bft) N 0,00 h 0,5 UV-I 90 W/m 4,6 C 4,9 C 0,0 km/h (0 Bft)
16.12.2015 12:00 23,7 C 6,1 C 44 % 96 % 1029,0 hPa 0,0 l/m 2,0 km/h (1 Bft) S 0,00 h 0,6 UV-I 116 W/m 5,5 C 6,1 C 3,2 km/h (1 Bft)
16.12.2015 13:00 23,7 C 7,1 C 44 % 88 % 1028,6 hPa 0,0 l/m 2,7 km/h (1 Bft) S-SW 0,00 h 0,5 UV-I 87 W/m 5,2 C 7,1 C 5,3 km/h (1 Bft)
16.12.2015 14:00 23,7 C 7,0 C 44 % 86 % 1028,5 hPa 0,0 l/m 2,9 km/h (1 Bft) S 0,00 h 0,0 UV-I 52 W/m 4,8 C 7,0 C 5,3 km/h (1 Bft)
16.12.2015 15:00 23,7 C 6,7 C 44 % 87 % 1028,6 hPa 0,0 l/m 1,2 km/h (1 Bft) S 0,00 h 0,0 UV-I 18 W/m 4,7 C 6,7 C 2,3 km/h (1 Bft)
16.12.2015 16:00 23,7 C 6,3 C 43 % 91 % 1028,6 hPa 0,2 l/m 4,2 km/h (1 Bft) S-SO 0,00 h 0,0 UV-I 0 W/m 4,8 C 5,7 C 6,8 km/h (2 Bft)
16.12.2015 17:00 23,7 C 5,8 C 44 % 94 % 1028,3 hPa 0,0 l/m 1,2 km/h (1 Bft) S 0,00 h 0,0 UV-I 0 W/m 5,0 C 5,8 C 2,3 km/h (1 Bft)
16.12.2015 18:00 23,9 C 5,8 C 46 % 95 % 1028,2 hPa 0,2 l/m 1,1 km/h (1 Bft) S 0,00 h 0,0 UV-I 0 W/m 5,2 C 5,8 C 2,3 km/h (1 Bft)
16.12.2015 19:00 24,2 C 6,1 C 52 % 96 % 1028,3 hPa 0,0 l/m 4,0 km/h (1 Bft) S 0,00 h 0,0 UV-I 0 W/m 5,6 C 5,9 C 6,8 km/h (2 Bft)
16.12.2015 20:00 23,9 C 6,2 C 49 % 97 % 1028,3 hPa 0,0 l/m 2,6 km/h (1 Bft) S 0,00 h 0,0 UV-I 0 W/m 5,8 C 6,2 C 4,5 km/h (1 Bft)
16.12.2015 21:00 24,0 C 6,3 C 48 % 97 % 1028,4 hPa 0,0 l/m 1,2 km/h (1 Bft) S 0,00 h 0,0 UV-I 0 W/m 5,9 C 6,3 C 2,7 km/h (1 Bft)
16.12.2015 22:00 23,9 C 6,3 C 47 % 97 % 1028,2 hPa 0,2 l/m 0,4 km/h (0 Bft) S 0,00 h 0,0 UV-I 0 W/m 5,9 C 6,3 C 1,0 km/h (0 Bft)
16.12.2015 23:00 23,7 C 6,4 C 47 % 97 % 1028,0 hPa 0,0 l/m 0,3 km/h (0 Bft) S 0,00 h 0,0 UV-I 0 W/m 5,9 C 6,4 C 0,7 km/h (0 Bft)
17.12.2015 00:00 23,5 C 6,6 C 47 % 98 % 1027,6 hPa 0,0 l/m 0,5 km/h (0 Bft) S 0,00 h 0,0 UV-I 0 W/m 6,3 C 6,6 C 1,5 km/h (1 Bft)
17.12.2015 01:00 23,3 C 6,7 C 48 % 98 % 1027,3 hPa 0,0 l/m 0,3 km/h (0 Bft) S-SW 0,00 h 0,0 UV-I 0 W/m 6,4 C 6,7 C 1,0 km/h (0 Bft)
17.12.2015 02:00 23,3 C 6,9 C 48 % 98 % 1027,2 hPa 0,4 l/m 0,3 km/h (0 Bft) S-SW 0,00 h 0,0 UV-I 0 W/m 6,6 C 6,9 C 0,9 km/h (0 Bft)
17.12.2015 03:00 23,2 C 7,1 C 48 % 98 % 1027,0 hPa 0,0 l/m 0,8 km/h (0 Bft) SW 0,00 h 0,0 UV-I 0 W/m 6,8 C 7,1 C 1,8 km/h (1 Bft)
17.12.2015 04:00 23,2 C 7,2 C 48 % 98 % 1026,8 hPa 0,0 l/m 0,3 km/h (0 Bft) SW 0,00 h 0,0 UV-I 0 W/m 6,9 C 7,2 C 1,2 km/h (1 Bft)
17.12.2015 05:00 23,1 C 7,4 C 48 % 98 % 1026,7 hPa 0,2 l/m 1,3 km/h (1 Bft) SW 0,00 h 0,0 UV-I 0 W/m 7,1 C 7,4 C 3,5 km/h (1 Bft)
17.12.2015 06:00 23,1 C 7,7 C 48 % 98 % 1026,8 hPa 0,0 l/m 0,9 km/h (0 Bft) SW 0,00 h 0,0 UV-I 0 W/m 7,4 C 7,7 C 3,3 km/h (1 Bft)
17.12.2015 07:00 23,1 C 7,9 C 49 % 98 % 1026,9 hPa 0,0 l/m 0,4 km/h (0 Bft) S 0,00 h 0,0 UV-I 0 W/m 7,6 C 7,9 C 1,6 km/h (1 Bft)
17.12.2015 08:00 23,3 C 8,2 C 49 % 98 % 1027,0 hPa 0,0 l/m 0,6 km/h (0 Bft) S 0,00 h 0,0 UV-I 10 W/m 7,9 C 8,2 C 1,9 km/h (1 Bft)
17.12.2015 09:00 23,5 C 8,6 C 50 % 98 % 1027,3 hPa 0,0 l/m 0,8 km/h (0 Bft) S-SW 0,00 h 0,0 UV-I 10 W/m 8,4 C 8,6 C 3,1 km/h (1 Bft)
17.12.2015 10:00 23,4 C 9,0 C 49 % 98 % 1027,4 hPa 0,2 l/m 0,3 km/h (0 Bft) S 0,00 h 0,0 UV-I 15 W/m 8,7 C 9,0 C 1,6 km/h (1 Bft)
17.12.2015 11:00 23,4 C 9,4 C 49 % 99 % 1026,9 hPa 0,0 l/m 1,1 km/h (1 Bft) SW 0,00 h 0,0 UV-I 25 W/m 9,2 C 9,4 C 4,0 km/h (1 Bft)
17.12.2015 12:00 23,4 C 9,7 C 50 % 99 % 1026,5 hPa 0,0 l/m 1,0 km/h (0 Bft) SW 0,00 h 0,5 UV-I 46 W/m 9,5 C 9,7 C 3,7 km/h (1 Bft)
17.12.2015 13:00 23,3 C 9,8 C 51 % 98 % 1026,1 hPa 0,2 l/m 1,5 km/h (1 Bft) S-SW 0,00 h 0,0 UV-I 31 W/m 9,5 C 9,8 C 4,6 km/h (1 Bft)
17.12.2015 14:00 23,6 C 9,9 C 51 % 98 % 1025,7 hPa 0,0 l/m 2,1 km/h (1 Bft) SW 0,00 h 0,0 UV-I 46 W/m 9,6 C 9,9 C 6,2 km/h (2 Bft)
17.12.2015 15:00 23,8 C 9,9 C 51 % 97 % 1025,6 hPa 0,0 l/m 1,3 km/h (1 Bft) SW 0,00 h 0,0 UV-I 17 W/m 9,4 C 9,9 C 3,9 km/h (1 Bft)
17.12.2015 16:00 23,6 C 9,7 C 51 % 97 % 1025,5 hPa 0,0 l/m 0,9 km/h (0 Bft) S 0,00 h 0,0 UV-I 0 W/m 9,3 C 9,7 C 2,3 km/h (1 Bft)
17.12.2015 17:00 23,6 C 9,7 C 51 % 97 % 1025,4 hPa 0,0 l/m 1,4 km/h (1 Bft) S 0,00 h 0,0 UV-I 0 W/m 9,2 C 9,7 C 3,8 km/h (1 Bft)
17.12.2015 18:00 23,8 C 9,7 C 52 % 97 % 1025,4 hPa 0,0 l/m 0,8 km/h (0 Bft) S 0,00 h 0,0 UV-I 0 W/m 9,2 C 9,7 C 2,3 km/h (1 Bft)
17.12.2015 19:00 24,1 C 9,8 C 53 % 98 % 1025,1 hPa 0,2 l/m 0,4 km/h (0 Bft) SW 0,00 h 0,0 UV-I 0 W/m 9,5 C 9,8 C 1,4 km/h (1 Bft)
17.12.2015 20:00 23,9 C 9,9 C 53 % 98 % 1024,8 hPa 0,0 l/m 0,5 km/h (0 Bft) SW 0,00 h 0,0 UV-I 0 W/m 9,6 C 9,9 C 1,6 km/h (1 Bft)
17.12.2015 21:00 24,0 C 10,0 C 53 % 98 % 1024,6 hPa 0,0 l/m 1,1 km/h (1 Bft) SW 0,00 h 0,0 UV-I 0 W/m 9,7 C 10,0 C 3,0 km/h (1 Bft)
17.12.2015 22:00 23,9 C 9,9 C 53 % 98 % 1024,4 hPa 0,0 l/m 1,5 km/h (1 Bft) S 0,00 h 0,0 UV-I 0 W/m 9,6 C 9,9 C 3,4 km/h (1 Bft)
17.12.2015 23:00 23,7 C 10,2 C 52 % 98 % 1024,6 hPa 0,0 l/m 1,8 km/h (1 Bft) SW 0,00 h 0,0 UV-I 0 W/m 9,9 C 10,2 C 4,4 km/h (1 Bft)
18.12.2015 00:00 23,5 C 10,2 C 53 % 98 % 1024,4 hPa 0,0 l/m 1,5 km/h (1 Bft) S 0,00 h 0,0 UV-I 0 W/m 9,9 C 10,2 C 4,2 km/h (1 Bft)
18.12.2015 01:00 23,4 C 10,2 C 53 % 98 % 1024,0 hPa 0,0 l/m 0,1 km/h (0 Bft) SW 0,00 h 0,0 UV-I 0 W/m 9,9 C 10,2 C 0,6 km/h (0 Bft)
18.12.2015 02:00 23,3 C 10,0 C 53 % 98 % 1023,8 hPa 0,0 l/m 0,0 km/h (0 Bft) N 0,00 h 0,0 UV-I 0 W/m 9,7 C 10,0 C 0,1 km/h (0 Bft)
18.12.2015 03:00 23,3 C 9,7 C 53 % 97 % 1023,4 hPa 0,0 l/m 0,1 km/h (0 Bft) W-SW 0,00 h 0,0 UV-I 0 W/m 9,3 C 9,7 C 0,3 km/h (0 Bft)
18.12.2015 04:00 23,3 C 9,0 C 54 % 97 % 1023,2 hPa 0,0 l/m 0,9 km/h (0 Bft) S-SW 0,00 h 0,0 UV-I 0 W/m 8,5 C 9,0 C 3,2 km/h (1 Bft)
18.12.2015 05:00 23,2 C 8,6 C 54 % 98 % 1023,1 hPa 0,0 l/m 1,6 km/h (1 Bft) S 0,00 h 0,0 UV-I 0 W/m 8,3 C 8,5 C 4,7 km/h (1 Bft)
18.12.2015 06:00 23,2 C 8,4 C 54 % 98 % 1023,0 hPa 0,0 l/m 0,2 km/h (0 Bft) S-SO 0,00 h 0,0 UV-I 0 W/m 8,1 C 8,4 C 0,9 km/h (0 Bft)
18.12.2015 07:00 23,2 C 8,4 C 54 % 97 % 1023,1 hPa 0,0 l/m 1,4 km/h (1 Bft) S 0,00 h 0,0 UV-I 0 W/m 8,0 C 8,3 C 4,2 km/h (1 Bft)
18.12.2015 08:00 23,2 C 8,0 C 54 % 97 % 1023,4 hPa 0,0 l/m 2,8 km/h (1 Bft) S 0,00 h 0,0 UV-I 5 W/m 7,6 C 7,9 C 7,2 km/h (2 Bft)
18.12.2015 09:00 23,1 C 7,8 C 51 % 97 % 1023,6 hPa 0,2 l/m 1,3 km/h (1 Bft) S 0,00 h 0,0 UV-I 13 W/m 7,4 C 7,8 C 4,1 km/h (1 Bft)
18.12.2015 10:00 23,2 C 8,0 C 51 % 97 % 1023,4 hPa 0,4 l/m 1,4 km/h (1 Bft) S-SO 0,00 h 0,0 UV-I 33 W/m 7,6 C 8,0 C 3,1 km/h (1 Bft)
18.12.2015 11:00 22,8 C 8,1 C 50 % 97 % 1023,7 hPa 0,0 l/m 4,5 km/h (1 Bft) SW 0,00 h 0,0 UV-I 25 W/m 7,7 C 8,0 C 9,9 km/h (2 Bft)
18.12.2015 12:00 23,0 C 8,1 C 50 % 97 % 1023,7 hPa 0,2 l/m 2,3 km/h (1 Bft) SW 0,00 h 0,0 UV-I 22 W/m 7,7 C 8,1 C 6,0 km/h (2 Bft)
18.12.2015 13:00 23,4 C 8,3 C 51 % 97 % 1023,6 hPa 0,0 l/m 1,0 km/h (0 Bft) SW 0,00 h 0,0 UV-I 31 W/m 7,8 C 8,3 C 3,5 km/h (1 Bft)
18.12.2015 14:00 23,7 C 8,5 C 51 % 97 % 1023,8 hPa 0,0 l/m 0,8 km/h (0 Bft) SW 0,00 h 0,0 UV-I 15 W/m 8,0 C 8,5 C 2,7 km/h (1 Bft)
18.12.2015 15:00 23,7 C 8,7 C 50 % 97 % 1024,4 hPa 0,0 l/m 0,6 km/h (0 Bft) W-SW 0,00 h 0,0 UV-I 6 W/m 8,2 C 8,7 C 2,5 km/h (1 Bft)
18.12.2015 16:00 23,7 C 8,7 C 50 % 97 % 1024,9 hPa 0,0 l/m 0,0 km/h (0 Bft) S-SW 0,00 h 0,0 UV-I 0 W/m 8,3 C 8,7 C 0,1 km/h (0 Bft)
18.12.2015 17:00 23,7 C 8,6 C 50 % 98 % 1025,1 hPa 0,0 l/m 0,0 km/h (0 Bft) W-SW 0,00 h 0,0 UV-I 0 W/m 8,3 C 8,6 C 0,3 km/h (0 Bft)
18.12.2015 18:00 23,7 C 8,7 C 50 % 97 % 1025,4 hPa 0,0 l/m 0,2 km/h (0 Bft) SW 0,00 h 0,0 UV-I 0 W/m 8,3 C 8,7 C 0,9 km/h (0 Bft)
18.12.2015 19:00 23,8 C 8,7 C 50 % 97 % 1025,6 hPa 0,0 l/m 0,0 km/h (0 Bft) N 0,00 h 0,0 UV-I 0 W/m 8,3 C 8,7 C 0,4 km/h (0 Bft)
18.12.2015 20:00 23,7 C 8,7 C 51 % 98 % 1025,6 hPa 0,0 l/m 0,0 km/h (0 Bft) N 0,00 h 0,0 UV-I 0 W/m 8,4 C 8,7 C 0,2 km/h (0 Bft)
18.12.2015 21:00 23,7 C 8,3 C 51 % 98 % 1025,6 hPa 0,0 l/m 0,1 km/h (0 Bft) S 0,00 h 0,0 UV-I 0 W/m 8,0 C 8,3 C 0,3 km/h (0 Bft)
18.12.2015 22:00 23,7 C 8,0 C 51 % 98 % 1025,6 hPa 0,0 l/m 0,0 km/h (0 Bft) N 0,00 h 0,0 UV-I 0 W/m 7,7 C 8,0 C 0,3 km/h (0 Bft)
18.12.2015 23:00 23,6 C 8,0 C 51 % 98 % 1025,6 hPa 0,0 l/m 0,0 km/h (0 Bft) S 0,00 h 0,0 UV-I 0 W/m 7,7 C 8,0 C 0,2 km/h (0 Bft)
19.12.2015 00:00 23,4 C 8,3 C 51 % 98 % 1025,3 hPa 0,0 l/m 0,5 km/h (0 Bft) S-SW 0,00 h 0,0 UV-I 0 W/m 8,0 C 8,3 C 1,9 km/h (1 Bft)
19.12.2015 01:00 23,3 C 8,4 C 51 % 98 % 1025,0 hPa 0,0 l/m 1,3 km/h (1 Bft) S-SW 0,00 h 0,0 UV-I 0 W/m 8,1 C 8,4 C 4,5 km/h (1 Bft)
19.12.2015 02:00 23,2 C 8,3 C 51 % 98 % 1025,2 hPa 0,0 l/m 1,0 km/h (0 Bft) SW 0,00 h 0,0 UV-I 0 W/m 8,0 C 8,3 C 3,5 km/h (1 Bft)
19.12.2015 03:00 23,1 C 8,1 C 51 % 98 % 1024,9 hPa 0,0 l/m 0,5 km/h (0 Bft) SW 0,00 h 0,0 UV-I 0 W/m 7,8 C 8,1 C 2,0 km/h (1 Bft)
19.12.2015 04:00 23,1 C 7,8 C 51 % 98 % 1024,9 hPa 0,0 l/m 0,3 km/h (0 Bft) SW 0,00 h 0,0 UV-I 0 W/m 7,5 C 7,8 C 1,2 km/h (1 Bft)
19.12.2015 05:00 23,0 C 7,6 C 52 % 98 % 1024,8 hPa 0,0 l/m 0,1 km/h (0 Bft) S 0,00 h 0,0 UV-I 0 W/m 7,3 C 7,6 C 0,4 km/h (0 Bft)
19.12.2015 06:00 23,0 C 7,3 C 52 % 98 % 1024,9 hPa 0,0 l/m 0,0 km/h (0 Bft) W 0,00 h 0,0 UV-I 0 W/m 7,0 C 7,3 C 0,1 km/h (0 Bft)
19.12.2015 07:00 23,0 C 7,1 C 52 % 98 % 1025,0 hPa 0,0 l/m 0,0 km/h (0 Bft) N 0,00 h 0,0 UV-I 0 W/m 6,9 C 7,1 C 0,0 km/h (0 Bft)
19.12.2015 08:00 23,1 C 6,9 C 53 % 98 % 1025,0 hPa 0,0 l/m 0,0 km/h (0 Bft) N 0,00 h 0,0 UV-I 21 W/m 6,6 C 6,9 C 0,1 km/h (0 Bft)
19.12.2015 09:00 23,2 C 7,4 C 53 % 98 % 1025,3 hPa 0,0 l/m 0,5 km/h (0 Bft) SW 0,00 h 0,0 UV-I 46 W/m 7,1 C 7,4 C 1,3 km/h (1 Bft)
19.12.2015 10:00 23,4 C 7,9 C 53 % 98 % 1025,6 hPa 0,0 l/m 0,4 km/h (0 Bft) S 0,00 h 0,0 UV-I 40 W/m 7,6 C 7,9 C 1,7 km/h (1 Bft)
19.12.2015 11:00 23,5 C 8,0 C 53 % 97 % 1025,8 hPa 0,0 l/m 2,0 km/h (1 Bft) S 0,00 h 0,5 UV-I 48 W/m 7,5 C 7,9 C 5,6 km/h (1 Bft)
19.12.2015 12:00 23,8 C 8,2 C 54 % 95 % 1025,4 hPa 0,0 l/m 2,5 km/h (1 Bft) S 0,00 h 0,5 UV-I 76 W/m 7,5 C 8,2 C 6,5 km/h (2 Bft)
19.12.2015 13:00 23,7 C 8,3 C 51 % 94 % 1024,9 hPa 0,0 l/m 0,6 km/h (0 Bft) S 0,00 h 0,5 UV-I 73 W/m 7,5 C 8,3 C 1,9 km/h (1 Bft)
19.12.2015 14:00 23,6 C 8,7 C 51 % 94 % 1024,7 hPa 0,0 l/m 0,5 km/h (0 Bft) W-SW 0,03 h 0,5 UV-I 80 W/m 7,7 C 8,7 C 2,2 km/h (1 Bft)
19.12.2015 15:00 23,5 C 8,5 C 51 % 94 % 1024,8 hPa 0,0 l/m 0,6 km/h (0 Bft) S 0,00 h 0,0 UV-I 22 W/m 7,5 C 8,5 C 2,4 km/h (1 Bft)
19.12.2015 16:00 23,5 C 8,3 C 50 % 95 % 1024,9 hPa 0,0 l/m 0,0 km/h (0 Bft) S-SW 0,00 h 0,0 UV-I 0 W/m 7,5 C 8,3 C 0,2 km/h (0 Bft)
19.12.2015 17:00 23,5 C 8,1 C 51 % 95 % 1024,8 hPa 0,0 l/m 0,0 km/h (0 Bft) N 0,00 h 0,0 UV-I 0 W/m 7,3 C 8,1 C 0,0 km/h (0 Bft)
19.12.2015 18:00 23,6 C 7,7 C 51 % 95 % 1024,7 hPa 0,0 l/m 0,0 km/h (0 Bft) N 0,00 h 0,0 UV-I 0 W/m 6,9 C 7,7 C 0,0 km/h (0 Bft)
19.12.2015 19:00 23,8 C 6,4 C 53 % 94 % 1024,8 hPa 0,0 l/m 0,0 km/h (0 Bft) N 0,00 h 0,0 UV-I 0 W/m 5,5 C 6,4 C 0,0 km/h (0 Bft)
19.12.2015 20:00 23,7 C 5,8 C 52 % 96 % 1025,2 hPa 0,0 l/m 0,5 km/h (0 Bft) W-SW 0,00 h 0,0 UV-I 0 W/m 5,3 C 5,8 C 1,9 km/h (1 Bft)
19.12.2015 21:00 23,8 C 6,2 C 52 % 98 % 1025,2 hPa 0,0 l/m 0,6 km/h (0 Bft) S 0,00 h 0,0 UV-I 0 W/m 5,9 C 6,2 C 2,4 km/h (1 Bft)
19.12.2015 22:00 23,7 C 6,2 C 51 % 98 % 1025,1 hPa 0,0 l/m 0,0 km/h (0 Bft) N 0,00 h 0,0 UV-I 0 W/m 5,9 C 6,2 C 0,1 km/h (0 Bft)
19.12.2015 23:00 23,6 C 5,7 C 51 % 98 % 1024,9 hPa 0,0 l/m 0,1 km/h (0 Bft) NO 0,00 h 0,0 UV-I 0 W/m 5,4 C 5,7 C 0,2 km/h (0 Bft)
20.12.2015 00:00 23,4 C 5,1 C 51 % 98 % 1024,6 hPa 0,0 l/m 0,0 km/h (0 Bft) N 0,00 h 0,0 UV-I 0 W/m 4,8 C 5,1 C 0,1 km/h (0 Bft)
20.12.2015 01:00 23,3 C 4,5 C 51 % 98 % 1024,1 hPa 0,0 l/m 0,0 km/h (0 Bft) N 0,00 h 0,0 UV-I 0 W/m 4,2 C 4,5 C 0,0 km/h (0 Bft)
20.12.2015 02:00 23,1 C 4,1 C 52 % 98 % 1024,2 hPa 0,0 l/m 0,0 km/h (0 Bft) N 0,00 h 0,0 UV-I 0 W/m 3,8 C 4,1 C 0,0 km/h (0 Bft)
20.12.2015 03:00 22,9 C 3,2 C 52 % 98 % 1024,0 hPa 0,0 l/m 0,0 km/h (0 Bft) N 0,00 h 0,0 UV-I 0 W/m 2,9 C 3,2 C 0,0 km/h (0 Bft)
20.12.2015 04:00 22,3 C 2,6 C 54 % 98 % 1023,7 hPa 0,0 l/m 0,0 km/h (0 Bft) N 0,00 h 0,0 UV-I 0 W/m 2,3 C 2,6 C 0,0 km/h (0 Bft)
20.12.2015 05:00 22,2 C 1,8 C 54 % 98 % 1023,4 hPa 0,0 l/m 0,0 km/h (0 Bft) N 0,00 h 0,0 UV-I 0 W/m 1,6 C 1,8 C 0,0 km/h (0 Bft)
20.12.2015 06:00 22,2 C 1,3 C 55 % 98 % 1023,5 hPa 0,0 l/m 0,0 km/h (0 Bft) N 0,00 h 0,0 UV-I 0 W/m 1,0 C 1,3 C 0,0 km/h (0 Bft)
20.12.2015 07:00 23,1 C 0,7 C 54 % 98 % 1023,5 hPa 0,0 l/m 0,0 km/h (0 Bft) N 0,00 h 0,0 UV-I 0 W/m 0,5 C 0,7 C 0,0 km/h (0 Bft)
20.12.2015 08:00 23,1 C 0,6 C 52 % 98 % 1024,0 hPa 0,2 l/m 0,0 km/h (0 Bft) N 0,00 h 0,0 UV-I 15 W/m 0,3 C 0,6 C 0,0 km/h (0 Bft)
20.12.2015 09:00 23,0 C 0,9 C 50 % 98 % 1024,4 hPa 0,0 l/m 0,0 km/h (0 Bft) N 0,00 h 0,0 UV-I 54 W/m 0,6 C 0,9 C 0,0 km/h (0 Bft)
20.12.2015 10:00 23,2 C 2,1 C 49 % 99 % 1024,6 hPa 0,0 l/m 0,1 km/h (0 Bft) O-SO 0,00 h 0,5 UV-I 74 W/m 1,9 C 2,1 C 0,3 km/h (0 Bft)
20.12.2015 11:00 23,2 C 3,3 C 48 % 99 % 1024,3 hPa 0,0 l/m 0,0 km/h (0 Bft) N 0,02 h 0,6 UV-I 101 W/m 3,1 C 3,3 C 0,0 km/h (0 Bft)
20.12.2015 12:00 23,2 C 4,5 C 49 % 99 % 1024,2 hPa 0,0 l/m 0,0 km/h (0 Bft) N 0,00 h 0,6 UV-I 100 W/m 4,3 C 4,5 C 0,0 km/h (0 Bft)
20.12.2015 13:00 23,2 C 5,0 C 47 % 99 % 1023,7 hPa 0,0 l/m 0,0 km/h (0 Bft) N 0,00 h 0,5 UV-I 87 W/m 4,9 C 5,0 C 0,0 km/h (0 Bft)
20.12.2015 14:00 23,1 C 5,9 C 47 % 99 % 1023,8 hPa 0,0 l/m 0,3 km/h (0 Bft) S-SO 0,00 h 0,0 UV-I 71 W/m 5,7 C 5,9 C 1,1 km/h (1 Bft)
20.12.2015 15:00 23,5 C 5,7 C 46 % 99 % 1024,0 hPa 0,0 l/m 0,8 km/h (0 Bft) W-SW 0,00 h 0,0 UV-I 19 W/m 5,5 C 5,7 C 1,9 km/h (1 Bft)
20.12.2015 16:00 23,5 C 4,9 C 46 % 98 % 1024,2 hPa 0,0 l/m 0,4 km/h (0 Bft) SO 0,00 h 0,0 UV-I 5 W/m 4,7 C 4,9 C 1,1 km/h (1 Bft)
20.12.2015 17:00 23,6 C 4,6 C 47 % 98 % 1024,4 hPa 0,0 l/m 0,3 km/h (0 Bft) S-SO 0,00 h 0,0 UV-I 0 W/m 4,3 C 4,6 C 1,4 km/h (1 Bft)
20.12.2015 18:00 23,5 C 4,5 C 47 % 98 % 1024,7 hPa 0,0 l/m 1,6 km/h (1 Bft) S 0,00 h 0,0 UV-I 0 W/m 4,2 C 4,4 C 4,3 km/h (1 Bft)
20.12.2015 19:00 23,6 C 4,3 C 47 % 98 % 1025,0 hPa 0,0 l/m 2,7 km/h (1 Bft) S 0,00 h 0,0 UV-I 0 W/m 4,0 C 4,3 C 6,3 km/h (2 Bft)
20.12.2015 20:00 23,4 C 4,3 C 47 % 98 % 1025,1 hPa 0,0 l/m 1,2 km/h (1 Bft) S-SO 0,00 h 0,0 UV-I 0 W/m 4,0 C 4,3 C 3,0 km/h (1 Bft)
20.12.2015 21:00 23,6 C 4,2 C 48 % 98 % 1025,1 hPa 0,0 l/m 0,4 km/h (0 Bft) S 0,00 h 0,0 UV-I 0 W/m 3,9 C 4,2 C 1,1 km/h (0 Bft)
20.12.2015 22:00 23,7 C 4,0 C 48 % 98 % 1025,3 hPa 0,0 l/m 0,4 km/h (0 Bft) S-SO 0,00 h 0,0 UV-I 0 W/m 3,8 C 4,0 C 1,2 km/h (1 Bft)
20.12.2015 23:00 23,4 C 3,8 C 49 % 98 % 1025,2 hPa 0,0 l/m 0,0 km/h (0 Bft) N 0,00 h 0,0 UV-I 0 W/m 3,5 C 3,8 C 0,0 km/h (0 Bft)
Min-Datum _ 20.12.15 20.12.15 15.12.15 16.12.15 18.12.15 - 14.12.15 - - - - 16.12.15 15.12.15 14.12.15
_ Min-Zeit 04:40 08:18 20:26 14:12 05:41 - 00:00 - - - - 02:12 07:02 00:00
Minimum _ 22,2 C 0,5 C 40 % 85 % 1022,9 hPa - 0,0 km/h (0 Bft) - - - - 0,2 C 0,4 C 0,0 km/h (0 Bft)
Max-Datum _ 15.12.15 17.12.15 20.12.15 17.12.15 16.12.15 17.12.15 16.12.15 - 19.12.15 16.12.15 19.12.15 17.12.15 17.12.15 16.12.15
_ Max-Zeit 13:46 23:23 06:53 09:41 10:09 02:27 16:42 - 14:12 12:05 14:13 23:23 23:39 16:47
Maximum _ 24,6 C 10,2 C 56 % 99 % 1030,0 hPa 0,4 l/m 11,3 km/h
S-SO (2 Bft)
- 0,02 h 0,6 UV-I 176 W/m 9,9 C 10,2 C 17,7 km/h
S-SO (3 Bft)
Durchschnitt _ 23,5 C 5,8 C 49 % 97 % 1025,5 hPa #3,4 l/m 0,7 km/h (0 Bft) S #3 min. 0,5 UV-I 39 W/m 5,3 C 5,8 C 1,9 km/h (1 Bft)